Showing default

HAWK-11B, 62379

Orbit data source: Space-Track

HAWK-11B, 62379 is a payload satellite owned by HawkEye 360 (US) in LEO that was launched on Sat, 21 Dec 2024 UTC via an FALCON 9 launch vehicle from the Air Force Western Test Range (AFWTR). Payload-class satellites include a variety of spacecraft equipped with specific instruments for various scientific and technological missions. These include communications satellites like Starlink; space stations such as the ISS; scientific satellites like the Hubble; Earth observation satellites from companies like Planet Labs, Umbra, and HawkEye 360; GPS; miniature CubeSats for education and research; and military/defense satellites.

Loading next visibility...
Identifier
62379, 2024-247C
Orbit
LEO
Last TLE update
13 hours ago
Origin
Manufacturer
UTIAS-SFL
Mission
Operational Commercial Sigint
Bus & Motor
HAWK2G, Unknown motor
Mass
31 kg wet, 30 kg dry
Launch date (UTC)
2024-12-21 (7 months ago)
Launch vehicle
FALCON 9
Launch site
Air Force Western Test Range (AFWTR)
Object type
Payload
Rocket body
Debris
Shape & HBR
Box + 2 Pan, 1 m
Radar Cross Section
0.240 m², Medium (>0.1 m² and < 1m²)

Expand to show TLE details & history

TLE from 13 hours ago
0 HAWK-11B
1 62379U 24247C   25188.79986759  .00006813  00000-0  28772-3 0  9997
2 62379  45.0105   8.3981 0002625 270.3322  89.7259 15.23976442 30351
Epoch: 2025-07-07T19:11Z
TLE epoch observation values (Epoch: 2025-07-07T19:11:48.559Z)
Latitude
-0.00003°
Longitude
154.44173°
Altitude
493.852 km
Speed
7.62 km/s
True Right ascension
00h 33m 35s
True Declination
0° 00' 00"
Sunlit
Object was in daylight at epoch
Visualization orbit readout
Latitude
15.58593°
Longitude
167.6711°
Altitude
493.729 km
Speed
7.621 km/s
Apparent Right ascension
04h 03m 26s
Apparent Declination
-16° 14' 54"
Sunlit
Object is in daylight
Visualization observer readout
Local Sidereal Time
19:58:22
Azimuth
82.701° E
Elevation
-34.173°
Doppler factor
1
Orbital elements
Apogee altitude
497.27 km
Perigee altitude
493.661 km
Semi-major axis
6,873.603 km
Eccentricity
0.00026
Inclination
45.0105°
RAAN
8.3981°
Arg. of periapsis
270.3322°
True anomaly
Unknown
Mean anomaly
89.7259°
Eccentric anomaly
Unknown
Mean motion
3.80861 °/min
Orbital period
94.52 mins
BSTAR
0.00028772
Loading maneuver chart data...
Loading SW <> Apogee altitude chart data...
Loading historical data...
Loading historical data...
Loading historical data...
Loading historical data...
Loading historical data...
Loading historical data...
Loading historical data...

HAWK-11B Visibility forecast

Observer location: undefined°, undefined°

Span
Click to sort rows by Start time (UTC) header in descending order
Start Az.
Max El. time (UTC)
Max El. Az.
Max El.
End time (UTC)
End Az.
5 mins2025-07-08 14:14:45.126Z185.204° SSW2025-07-08 14:17:45.126Z131.202° SE17.946°2025-07-08 14:19:45.126Z97.596° ESE
6 mins2025-07-08 15:53:45.126Z246.842° WSW2025-07-08 15:55:45.126Z255.569° W44.347°2025-07-08 15:59:45.126Z66.234° ENE
6 mins2025-07-08 17:32:45.126Z291.472° WNW2025-07-08 17:35:45.126Z13.082° NNE31.094°2025-07-08 17:38:45.126Z63.916° ENE
5 mins2025-07-08 19:12:45.126Z309.204° NW2025-07-08 19:14:45.126Z11.264° NNE36.293°2025-07-08 19:17:45.126Z84.811° E
5 mins2025-07-08 20:51:45.126Z277.933° WNW2025-07-08 20:53:45.126Z218.127° SW38.173°2025-07-08 20:56:45.126Z137.141° SSE
|